Find OneWeb SL0592

NORAD ID: 54658 Int'l Des: 2022-166 Owner: ONEWEBN Country: UK Constellation: oneweb operational
LEOCIRCULARPOLARONEWEB_TYPE

現在のビュー

3D地球を読み込み中...

About OneWeb SL0592

OneWeb SL0592 (NORAD 54658) is a oneweb constellation satellite launched Dec 8, 2022 by ONEWEBN of UK. It operates in LEO, CIRCULAR, POLAR, ONEWEB_TYPE orbit with a mass of 148.00 kg.

OneWeb SL0592について

説明を読み込み中...

次回通過

Passes for default location (London). Set your location on the main map for personalized predictions.

高度履歴

Loading altitude history...

軌道要素

1 54658U 22166S 26166.26908574 .00000031 00000-0 42409-4 0 9994
2 54658 87.9264 244.3458 0002032 98.5689 261.5675 13.21827459171180
Epoch: Jun 15, 2026 • Age: 8 hours

現在のステータス

高度 1189.3 km
速度 7.27 km/s
衛星直下点 76.42°N, 61.87°W
打ち上げ日 Dec 8, 2022
運用期間 3.5 years
タイプ internet

技術仕様

分類 Payload
質量 148.00 kg
乾燥質量 140.00 kg
総質量 148.00 kg
長さ 1.30 m
直径 1.00 m
スパン 5.00 m
形状 Trapezoid+2 pan
製造者 ONEWUS
バスタイプ ARROW
フェーズステータス In Orbit
所有者/国 ONEWEBN/UK

Most Searched